Time,TemperatureF,DewpointF,PressureIn,WindDirection,WindDirectionDegrees,WindSpeedMPH,WindSpeedGustMPH,Humidity,HourlyPrecipIn,Conditions,Clouds,dailyrainin,SolarRadiationWatts/m^2,SoftwareType,DateUTC
2013-06-03 00:00:00,65.8,64.9,29.83,WSW,250,0.0,0.0,97,0.00,,---,0.52,0.00,VWS V14.01,2013-06-03 04:00:00,
2013-06-03 00:01:00,65.8,64.9,29.83,WSW,250,0.0,0.0,97,0.00,,---,0.52,0.00,VWS V14.01,2013-06-03 04:01:00,
2013-06-03 00:02:00,65.9,65.0,29.83,WSW,250,0.0,0.0,97,0.00,,---,0.52,0.00,VWS V14.01,2013-06-03 04:02:00,
2013-06-03 00:03:00,65.9,65.3,29.82,WSW,250,0.0,0.0,98,0.00,,---,0.52,0.00,VWS V14.01,2013-06-03 04:03:00,
2013-06-03 00:08:00,66.0,65.4,29.83,WSW,250,0.0,0.0,98,0.00,,---,0.52,0.00,VWS V14.01,2013-06-03 04:08:00,
2013-06-03 00:13:00,66.2,65.3,29.83,WSW,250,0.0,2.0,97,0.00,,---,0.00,0.00,VWS V14.01,2013-06-03 04:13:00,
2013-06-03 00:18:00,66.2,65.3,29.83,WSW,250,0.0,2.0,97,0.02,,---,0.02,0.00,VWS V14.01,2013-06-03 04:18:00,
2013-06-03 00:24:00,66.2,65.3,29.82,WSW,250,0.0,0.0,97,0.03,,---,0.03,0.00,VWS V14.01,2013-06-03 04:24:00,
2013-06-03 00:29:00,66.3,65.4,29.82,WSW,250,0.0,0.0,97,0.03,,---,0.03,0.00,VWS V14.01,2013-06-03 04:29:00,
2013-06-03 00:34:00,66.4,65.5,29.82,WSW,250,0.0,0.0,97,0.03,,---,0.03,0.00,VWS V14.01,2013-06-03 04:34:00,
2013-06-03 00:39:00,66.4,65.5,29.82,WSW,250,0.0,0.0,97,0.03,,---,0.03,0.00,VWS V14.01,2013-06-03 04:39:00,
2013-06-03 00:44:00,66.3,65.4,29.82,WSW,250,0.0,0.0,97,0.03,,---,0.03,0.00,VWS V14.01,2013-06-03 04:44:00,
2013-06-03 00:49:00,66.3,65.4,29.82,WSW,250,0.0,0.0,97,0.03,,---,0.03,0.00,VWS V14.01,2013-06-03 04:49:00,
2013-06-03 00:52:00,66.4,65.8,29.82,WSW,250,0.0,1.0,98,0.03,,---,0.03,0.00,VWS V14.01,2013-06-03 04:52:00,
2013-06-03 00:54:00,66.3,65.7,29.82,WSW,250,0.0,0.0,98,0.03,,---,0.03,0.00,VWS V14.01,2013-06-03 04:54:00,
2013-06-03 00:59:00,66.3,65.7,29.82,WSW,250,0.0,0.0,98,0.03,,---,0.03,0.00,VWS V14.01,2013-06-03 04:59:00,
2013-06-03 01:04:00,66.4,65.8,29.82,WSW,250,0.0,1.0,98,0.03,,---,0.03,0.00,VWS V14.01,2013-06-03 05:04:00,
2013-06-03 01:09:00,66.4,65.8,29.82,WSW,250,0.0,0.0,98,0.03,,---,0.03,0.00,VWS V14.01,2013-06-03 05:09:00,
2013-06-03 01:14:00,66.4,65.8,29.82,WSW,250,0.0,1.0,98,0.03,,---,0.03,0.00,VWS V14.01,2013-06-03 05:14:00,
2013-06-03 01:19:00,66.4,65.8,29.82,WSW,250,0.0,0.0,98,0.01,,---,0.03,0.00,VWS V14.01,2013-06-03 05:19:00,
2013-06-03 01:24:00,66.4,65.8,29.82,WSW,250,0.0,0.0,98,0.01,,---,0.03,0.00,VWS V14.01,2013-06-03 05:24:00,
2013-06-03 01:29:00,66.4,65.8,29.82,WSW,250,0.0,0.0,98,0.00,,---,0.03,0.00,VWS V14.01,2013-06-03 05:29:00,
2013-06-03 01:34:00,66.4,65.8,29.82,WSW,250,1.0,1.0,98,0.00,,---,0.03,0.00,VWS V14.01,2013-06-03 05:34:00,
2013-06-03 01:39:00,66.3,65.7,29.82,WSW,250,1.0,1.0,98,0.00,,---,0.03,0.00,VWS V14.01,2013-06-03 05:39:00,
2013-06-03 01:44:00,66.2,65.6,29.82,WSW,250,0.0,1.0,98,0.00,,---,0.03,0.00,VWS V14.01,2013-06-03 05:44:00,
2013-06-03 01:50:00,66.2,65.6,29.82,WSW,250,0.0,0.0,98,0.00,,---,0.03,0.00,VWS V14.01,2013-06-03 05:50:00,
2013-06-03 01:55:00,66.1,65.2,29.82,WSW,250,0.0,0.0,97,0.00,,---,0.03,0.00,VWS V14.01,2013-06-03 05:55:00,
2013-06-03 02:00:00,66.1,65.5,29.82,WSW,250,0.0,1.0,98,0.00,,---,0.03,0.00,VWS V14.01,2013-06-03 06:00:00,
2013-06-03 02:05:00,66.1,65.5,29.82,WSW,250,0.0,2.0,98,0.00,,---,0.03,0.00,VWS V14.01,2013-06-03 06:05:00,
2013-06-03 02:10:00,66.1,65.5,29.82,WSW,250,1.0,1.0,98,0.00,,---,0.03,0.00,VWS V14.01,2013-06-03 06:10:00,
2013-06-03 02:15:00,66.0,65.4,29.82,WSW,250,0.0,1.0,98,0.00,,---,0.03,0.00,VWS V14.01,2013-06-03 06:15:00,
2013-06-03 02:20:00,66.0,65.4,29.82,WSW,250,0.0,0.0,98,0.00,,---,0.03,0.00,VWS V14.01,2013-06-03 06:20:00,
2013-06-03 02:25:00,65.9,65.0,29.82,WSW,250,0.0,3.0,97,0.00,,---,0.03,0.00,VWS V14.01,2013-06-03 06:25:00,
2013-06-03 02:30:00,65.9,65.0,29.82,WSW,250,2.0,2.0,97,0.00,,---,0.03,0.00,VWS V14.01,2013-06-03 06:30:00,
2013-06-03 02:35:00,65.9,65.0,29.82,WSW,250,1.0,2.0,97,0.00,,---,0.03,0.00,VWS V14.01,2013-06-03 06:35:00,
2013-06-03 02:40:00,65.8,64.9,29.82,SW,215,1.0,2.0,97,0.00,,---,0.03,0.00,VWS V14.01,2013-06-03 06:40:00,
2013-06-03 02:45:00,65.7,64.8,29.81,SW,215,0.0,2.0,97,0.00,,---,0.03,0.00,VWS V14.01,2013-06-03 06:45:00,
2013-06-03 02:50:00,65.7,64.8,29.81,SW,215,0.0,0.0,97,0.00,,---,0.03,0.00,VWS V14.01,2013-06-03 06:50:00,
2013-06-03 02:55:00,65.6,64.7,29.81,SW,215,0.0,0.0,97,0.00,,---,0.03,0.00,VWS V14.01,2013-06-03 06:55:00,
2013-06-03 03:00:00,65.6,64.7,29.81,SW,215,0.0,0.0,97,0.00,,---,0.03,0.00,VWS V14.01,2013-06-03 07:00:00,
2013-06-03 03:06:00,65.5,64.6,29.81,SW,215,0.0,0.0,97,0.00,,---,0.03,0.00,VWS V14.01,2013-06-03 07:06:00,
2013-06-03 03:11:00,65.5,64.6,29.81,SW,215,1.0,2.0,97,0.00,,---,0.03,0.00,VWS V14.01,2013-06-03 07:11:00,
2013-06-03 03:16:00,65.4,64.5,29.81,WSW,252,0.0,6.0,97,0.00,,---,0.03,0.00,VWS V14.01,2013-06-03 07:16:00,
2013-06-03 03:21:00,65.4,64.5,29.81,WSW,254,0.0,4.0,97,0.00,,---,0.03,0.00,VWS V14.01,2013-06-03 07:21:00,
2013-06-03 03:26:00,65.3,64.4,29.82,WSW,254,3.0,4.0,97,0.00,,---,0.03,0.00,VWS V14.01,2013-06-03 07:26:00,
2013-06-03 03:31:00,65.3,64.4,29.82,SW,236,0.0,7.0,97,0.00,,---,0.03,0.00,VWS V14.01,2013-06-03 07:31:00,
2013-06-03 03:36:00,65.3,64.4,29.81,SW,236,2.0,7.0,97,0.00,,---,0.03,0.00,VWS V14.01,2013-06-03 07:36:00,
2013-06-03 03:42:00,65.2,64.3,29.82,WSW,254,0.0,5.0,97,0.00,,---,0.03,0.00,VWS V14.01,2013-06-03 07:42:00,
2013-06-03 03:47:00,65.2,64.3,29.81,West,260,2.0,5.0,97,0.00,,---,0.03,0.00,VWS V14.01,2013-06-03 07:47:00,
2013-06-03 03:52:00,65.2,64.3,29.81,WSW,250,5.0,5.0,97,0.00,,---,0.03,0.00,VWS V14.01,2013-06-03 07:52:00,
2013-06-03 03:57:00,65.2,64.3,29.81,WSW,242,0.0,5.0,97,0.00,,---,0.03,0.00,VWS V14.01,2013-06-03 07:57:00,
2013-06-03 04:02:00,65.1,64.2,29.81,WSW,242,0.0,3.0,97,0.00,,---,0.03,0.00,VWS V14.01,2013-06-03 08:02:00,
2013-06-03 04:07:00,65.0,64.1,29.81,WSW,242,0.0,5.0,97,0.00,,---,0.03,0.00,VWS V14.01,2013-06-03 08:07:00,
2013-06-03 04:12:00,65.1,64.2,29.81,WSW,242,0.0,3.0,97,0.00,,---,0.03,0.00,VWS V14.01,2013-06-03 08:12:00,
2013-06-03 04:17:00,65.1,64.2,29.82,WSW,242,0.0,3.0,97,0.00,,---,0.03,0.00,VWS V14.01,2013-06-03 08:17:00,
2013-06-03 04:22:00,65.1,64.5,29.81,WSW,242,0.0,0.0,98,0.00,,---,0.03,0.00,VWS V14.01,2013-06-03 08:22:00,
2013-06-03 04:27:00,65.1,64.5,29.82,WSW,242,0.0,1.0,98,0.00,,---,0.03,0.00,VWS V14.01,2013-06-03 08:27:00,
2013-06-03 04:32:00,65.1,64.5,29.81,WSW,242,0.0,1.0,98,0.00,,---,0.03,0.00,VWS V14.01,2013-06-03 08:32:00,
2013-06-03 04:37:00,65.1,64.5,29.81,WSW,242,0.0,1.0,98,0.00,,---,0.03,0.00,VWS V14.01,2013-06-03 08:37:00,
2013-06-03 04:42:00,65.1,64.5,29.80,WSW,242,0.0,0.0,98,0.00,,---,0.03,0.00,VWS V14.01,2013-06-03 08:42:00,
2013-06-03 04:47:00,65.1,64.5,29.81,WSW,242,0.0,1.0,98,0.00,,---,0.03,0.00,VWS V14.01,2013-06-03 08:47:00,
2013-06-03 04:52:00,65.1,64.5,29.81,WSW,242,0.0,0.0,98,0.00,,---,0.03,0.00,VWS V14.01,2013-06-03 08:52:00,
2013-06-03 04:57:00,65.1,64.5,29.81,WSW,242,0.0,1.0,98,0.00,,---,0.03,0.00,VWS V14.01,2013-06-03 08:57:00,
2013-06-03 05:02:00,65.2,64.6,29.81,WSW,242,0.0,0.0,98,0.00,,---,0.03,0.00,VWS V14.01,2013-06-03 09:02:00,
2013-06-03 05:07:00,65.2,64.6,29.81,WSW,242,0.0,2.0,98,0.00,,---,0.03,0.00,VWS V14.01,2013-06-03 09:07:00,
2013-06-03 05:12:00,65.2,64.6,29.81,WSW,242,0.0,0.0,98,0.00,,---,0.03,0.00,VWS V14.01,2013-06-03 09:12:00,
2013-06-03 05:17:00,65.2,64.6,29.81,WSW,242,0.0,1.0,98,0.00,,---,0.03,0.00,VWS V14.01,2013-06-03 09:17:00,
2013-06-03 05:22:00,65.1,64.5,29.81,WSW,242,0.0,0.0,98,0.00,,---,0.03,0.00,VWS V14.01,2013-06-03 09:22:00,
2013-06-03 05:27:00,65.1,64.5,29.82,WSW,242,0.0,0.0,98,0.00,,---,0.03,0.00,VWS V14.01,2013-06-03 09:27:00,
2013-06-03 05:32:00,65.1,64.5,29.82,WSW,242,0.0,1.0,98,0.00,,---,0.03,0.00,VWS V14.01,2013-06-03 09:32:00,
2013-06-03 05:37:00,65.1,64.5,29.82,WSW,242,0.0,1.0,98,0.00,,---,0.03,0.00,VWS V14.01,2013-06-03 09:37:00,
2013-06-03 05:43:00,65.1,64.5,29.82,WSW,242,0.0,0.0,98,0.00,,---,0.03,0.00,VWS V14.01,2013-06-03 09:43:00,
2013-06-03 05:48:00,65.1,64.5,29.82,WSW,242,0.0,0.0,98,0.00,,---,0.03,0.00,VWS V14.01,2013-06-03 09:48:00,
2013-06-03 05:53:00,65.2,64.6,29.82,WSW,242,0.0,0.0,98,0.00,,---,0.03,0.00,VWS V14.01,2013-06-03 09:53:00,
2013-06-03 05:58:00,65.2,64.6,29.82,WSW,242,0.0,1.0,98,0.00,,---,0.03,0.00,VWS V14.01,2013-06-03 09:58:00,
2013-06-03 06:03:00,65.2,64.6,29.82,WSW,242,0.0,2.0,98,0.00,,---,0.03,0.00,VWS V14.01,2013-06-03 10:03:00,
2013-06-03 06:08:00,65.2,64.6,29.82,WSW,242,0.0,2.0,98,0.00,,---,0.03,0.00,VWS V14.01,2013-06-03 10:08:00,
2013-06-03 06:13:00,65.2,64.6,29.83,WSW,242,0.0,0.0,98,0.00,,---,0.03,0.00,VWS V14.01,2013-06-03 10:13:00,
2013-06-03 06:18:00,65.2,64.6,29.82,WSW,242,0.0,0.0,98,0.00,,---,0.03,0.00,VWS V14.01,2013-06-03 10:18:00,
2013-06-03 06:23:00,65.2,64.6,29.82,WSW,242,0.0,1.0,98,0.00,,---,0.03,0.00,VWS V14.01,2013-06-03 10:23:00,
2013-06-03 06:28:00,65.2,64.6,29.83,WSW,242,0.0,1.0,98,0.00,,---,0.03,0.00,VWS V14.01,2013-06-03 10:28:00,
2013-06-03 06:33:00,65.2,64.6,29.83,WSW,242,0.0,0.0,98,0.00,,---,0.03,7.00,VWS V14.01,2013-06-03 10:33:00,
2013-06-03 06:38:00,65.2,64.6,29.83,WSW,242,0.0,0.0,98,0.00,,---,0.03,16.00,VWS V14.01,2013-06-03 10:38:00,
2013-06-03 06:43:00,65.2,64.6,29.83,WSW,242,0.0,0.0,98,0.00,,---,0.03,25.00,VWS V14.01,2013-06-03 10:43:00,
2013-06-03 06:48:00,65.2,64.6,29.83,WSW,242,0.0,0.0,98,0.00,,---,0.03,26.00,VWS V14.01,2013-06-03 10:48:00,
2013-06-03 06:53:00,65.2,64.6,29.83,WSW,242,0.0,0.0,98,0.00,,---,0.03,25.00,VWS V14.01,2013-06-03 10:53:00,
2013-06-03 06:58:00,65.3,64.7,29.83,WSW,242,0.0,0.0,98,0.00,,---,0.03,21.00,VWS V14.01,2013-06-03 10:58:00,
2013-06-03 07:04:00,65.3,64.7,29.83,WSW,242,0.0,0.0,98,0.00,,---,0.03,23.00,VWS V14.01,2013-06-03 11:04:00,
2013-06-03 07:09:00,65.3,64.7,29.84,WSW,242,0.0,0.0,98,0.00,,---,0.03,26.00,VWS V14.01,2013-06-03 11:09:00,
2013-06-03 07:14:00,65.3,64.7,29.83,WSW,242,0.0,0.0,98,0.00,,---,0.03,28.00,VWS V14.01,2013-06-03 11:14:00,
2013-06-03 07:19:00,65.3,64.7,29.84,WSW,242,0.0,0.0,98,0.00,,---,0.03,32.00,VWS V14.01,2013-06-03 11:19:00,
2013-06-03 07:24:00,65.3,64.7,29.84,WSW,242,0.0,0.0,98,0.00,,---,0.03,32.00,VWS V14.01,2013-06-03 11:24:00,
2013-06-03 07:29:00,65.3,64.7,29.84,WSW,242,0.0,0.0,98,0.00,,---,0.03,37.00,VWS V14.01,2013-06-03 11:29:00,
2013-06-03 07:34:00,65.4,64.8,29.84,WSW,242,0.0,2.0,98,0.00,,---,0.03,32.00,VWS V14.01,2013-06-03 11:34:00,
2013-06-03 07:39:00,65.4,64.8,29.84,WSW,242,1.0,1.0,98,0.00,,---,0.03,53.00,VWS V14.01,2013-06-03 11:39:00,
2013-06-03 07:44:00,65.4,64.8,29.84,WSW,242,0.0,2.0,98,0.00,,---,0.03,39.00,VWS V14.01,2013-06-03 11:44:00,
2013-06-03 07:49:00,65.6,65.0,29.85,WSW,242,0.0,2.0,98,0.00,,---,0.03,67.00,VWS V14.01,2013-06-03 11:49:00,
2013-06-03 07:54:00,65.6,65.0,29.85,WSW,242,0.0,2.0,98,0.00,,---,0.03,70.00,VWS V14.01,2013-06-03 11:54:00,
2013-06-03 07:59:00,65.8,65.2,29.85,SW,236,0.0,0.0,98,0.00,,---,0.03,100.00,VWS V14.01,2013-06-03 11:59:00,
2013-06-03 08:04:00,65.9,65.3,29.85,WSW,242,0.0,1.0,98,0.00,,---,0.03,93.00,VWS V14.01,2013-06-03 12:04:00,
2013-06-03 08:09:00,65.8,65.2,29.85,WSW,242,0.0,3.0,98,0.00,,---,0.03,146.00,VWS V14.01,2013-06-03 12:09:00,
2013-06-03 08:15:00,66.0,65.4,29.85,WSW,242,0.0,3.0,98,0.00,,---,0.03,104.00,VWS V14.01,2013-06-03 12:15:00,
2013-06-03 08:20:00,66.1,65.5,29.85,WSW,242,0.0,2.0,98,0.00,,---,0.03,151.00,VWS V14.01,2013-06-03 12:20:00,
2013-06-03 08:25:00,66.2,65.6,29.85,WSW,242,0.0,2.0,98,0.00,,---,0.03,155.00,VWS V14.01,2013-06-03 12:25:00,
2013-06-03 08:30:00,66.2,65.6,29.86,WSW,252,0.0,2.0,98,0.00,,---,0.03,109.00,VWS V14.01,2013-06-03 12:30:00,
2013-06-03 08:35:00,66.2,65.3,29.86,West,261,1.0,4.0,97,0.00,,---,0.03,169.00,VWS V14.01,2013-06-03 12:35:00,
2013-06-03 08:40:00,66.2,65.3,29.86,SW,229,1.0,5.0,97,0.00,,---,0.03,130.00,VWS V14.01,2013-06-03 12:40:00,
2013-06-03 08:45:00,66.3,65.4,29.86,West,272,0.0,5.0,97,0.00,,---,0.03,179.00,VWS V14.01,2013-06-03 12:45:00,
2013-06-03 08:50:00,66.5,65.6,29.86,West,272,1.0,1.0,97,0.00,,---,0.03,130.00,VWS V14.01,2013-06-03 12:50:00,
2013-06-03 08:55:00,66.5,65.6,29.86,West,272,0.0,2.0,97,0.00,,---,0.03,163.00,VWS V14.01,2013-06-03 12:55:00,
2013-06-03 09:00:00,66.8,65.9,29.86,West,272,0.0,3.0,97,0.00,,---,0.03,192.00,VWS V14.01,2013-06-03 13:00:00,
2013-06-03 09:05:00,67.0,65.8,29.86,WSW,249,0.0,4.0,96,0.00,,---,0.03,287.00,VWS V14.01,2013-06-03 13:05:00,
2013-06-03 09:10:00,67.6,66.4,29.86,WSW,240,0.0,3.0,96,0.00,,---,0.03,185.00,VWS V14.01,2013-06-03 13:10:00,
2013-06-03 09:15:00,67.9,66.4,29.86,WSW,256,1.0,5.0,95,0.00,,---,0.03,422.00,VWS V14.01,2013-06-03 13:15:00,
2013-06-03 09:20:00,68.1,66.3,29.86,WSW,242,0.0,5.0,94,0.00,,---,0.03,515.00,VWS V14.01,2013-06-03 13:20:00,
2013-06-03 09:25:00,68.6,66.8,29.86,WSW,246,2.0,5.0,94,0.00,,---,0.03,578.00,VWS V14.01,2013-06-03 13:25:00,
2013-06-03 09:30:00,68.7,66.3,29.86,SW,226,2.0,9.0,92,0.00,,---,0.03,557.00,VWS V14.01,2013-06-03 13:30:00,
2013-06-03 09:35:00,68.8,66.4,29.86,SW,233,1.0,9.0,92,0.00,,---,0.03,559.00,VWS V14.01,2013-06-03 13:35:00,
2013-06-03 09:41:00,68.9,66.5,29.86,SW,229,4.0,4.0,92,0.00,,---,0.03,543.00,VWS V14.01,2013-06-03 13:41:00,
2013-06-03 09:46:00,69.1,66.1,29.86,SW,229,1.0,6.0,90,0.00,,---,0.03,631.00,VWS V14.01,2013-06-03 13:46:00,
2013-06-03 09:51:00,69.6,66.5,29.86,WSW,245,4.0,7.0,90,0.00,,---,0.03,647.00,VWS V14.01,2013-06-03 13:51:00,
2013-06-03 09:56:00,69.9,66.5,29.86,West,261,0.0,7.0,89,0.00,,---,0.03,543.00,VWS V14.01,2013-06-03 13:56:00,
2013-06-03 10:01:00,70.2,66.5,29.86,WSW,243,3.0,4.0,88,0.00,,---,0.03,561.00,VWS V14.01,2013-06-03 14:01:00,
2013-06-03 10:06:00,70.6,66.9,29.86,WSW,245,0.0,4.0,88,0.00,,---,0.03,701.00,VWS V14.01,2013-06-03 14:06:00,
2013-06-03 10:12:00,70.3,65.6,29.87,SW,233,0.0,6.0,85,0.00,,---,0.03,239.00,VWS V14.01,2013-06-03 14:12:00,
2013-06-03 10:17:00,70.4,67.0,29.87,WSW,241,0.0,7.0,89,0.00,,---,0.03,712.00,VWS V14.01,2013-06-03 14:17:00,
2013-06-03 10:22:00,70.7,66.3,29.86,SW,223,0.0,5.0,86,0.00,,---,0.03,831.00,VWS V14.01,2013-06-03 14:22:00,
2013-06-03 10:27:00,71.1,67.0,29.86,SW,236,1.0,6.0,87,0.00,,---,0.03,211.00,VWS V14.01,2013-06-03 14:27:00,
2013-06-03 10:32:00,70.9,66.8,29.86,WNW,283,1.0,4.0,87,0.00,,---,0.03,178.00,VWS V14.01,2013-06-03 14:32:00,
2013-06-03 10:37:00,70.6,66.2,29.86,WSW,243,2.0,8.0,86,0.00,,---,0.03,777.00,VWS V14.01,2013-06-03 14:37:00,
2013-06-03 10:42:00,70.7,66.0,29.87,WNW,294,3.0,6.0,85,0.00,,---,0.03,777.00,VWS V14.01,2013-06-03 14:42:00,
2013-06-03 10:47:00,71.2,66.1,29.86,WSW,241,2.0,6.0,84,0.00,,---,0.03,826.00,VWS V14.01,2013-06-03 14:47:00,
2013-06-03 10:52:00,71.9,66.8,29.86,WNW,293,2.0,4.0,84,0.00,,---,0.03,531.00,VWS V14.01,2013-06-03 14:52:00,
2013-06-03 10:57:00,72.4,66.2,29.87,West,274,1.0,6.0,81,0.00,,---,0.03,332.00,VWS V14.01,2013-06-03 14:57:00,
2013-06-03 11:02:00,72.2,65.3,29.86,WSW,248,2.0,3.0,79,0.00,,---,0.03,163.00,VWS V14.01,2013-06-03 15:02:00,
2013-06-03 11:07:00,72.2,65.7,29.86,South,186,4.0,4.0,80,0.00,,---,0.03,919.00,VWS V14.01,2013-06-03 15:07:00,
2013-06-03 11:12:00,72.4,66.6,29.87,NW,305,0.0,5.0,82,0.00,,---,0.03,900.00,VWS V14.01,2013-06-03 15:12:00,
2013-06-03 11:17:00,72.6,66.4,29.87,West,260,2.0,12.0,81,0.00,,---,0.03,192.00,VWS V14.01,2013-06-03 15:17:00,
2013-06-03 11:22:00,72.6,65.3,29.87,WSW,237,5.0,9.0,78,0.00,,---,0.03,956.00,VWS V14.01,2013-06-03 15:22:00,
2013-06-03 11:27:00,72.8,65.9,29.87,SW,225,2.0,9.0,79,0.00,,---,0.03,1023.00,VWS V14.01,2013-06-03 15:27:00,
2013-06-03 11:33:00,72.9,65.3,29.86,SW,225,2.0,3.0,77,0.00,,---,0.03,1023.00,VWS V14.01,2013-06-03 15:33:00,
2013-06-03 11:38:00,73.1,66.9,29.86,WSW,238,2.0,4.0,81,0.00,,---,0.03,1065.00,VWS V14.01,2013-06-03 15:38:00,
2013-06-03 11:43:00,73.5,66.2,29.87,WSW,240,2.0,3.0,78,0.00,,---,0.03,1076.00,VWS V14.01,2013-06-03 15:43:00,
2013-06-03 11:48:00,73.8,66.5,29.87,SW,236,0.0,9.0,78,0.00,,---,0.03,1097.00,VWS V14.01,2013-06-03 15:48:00,
2013-06-03 11:53:00,73.6,66.7,29.87,SW,229,9.0,10.0,79,0.00,,---,0.03,221.00,VWS V14.01,2013-06-03 15:53:00,
2013-06-03 11:58:00,73.5,65.9,29.87,WSW,243,0.0,10.0,77,0.00,,---,0.03,993.00,VWS V14.01,2013-06-03 15:58:00,
2013-06-03 12:03:00,74.2,66.2,29.86,SW,226,6.0,13.0,76,0.00,,---,0.03,1035.00,VWS V14.01,2013-06-03 16:03:00,
2013-06-03 12:08:00,74.6,66.5,29.86,SW,230,1.0,13.0,76,0.00,,---,0.03,1102.00,VWS V14.01,2013-06-03 16:08:00,
2013-06-03 12:13:00,74.8,66.7,29.87,WSW,244,0.0,9.0,76,0.00,,---,0.03,1086.00,VWS V14.01,2013-06-03 16:13:00,
2013-06-03 12:18:00,74.9,67.2,29.86,SW,217,1.0,9.0,77,0.00,,---,0.03,1102.00,VWS V14.01,2013-06-03 16:18:00,
2013-06-03 12:23:00,75.0,65.8,29.87,SW,235,5.0,11.0,73,0.00,,---,0.03,1165.00,VWS V14.01,2013-06-03 16:23:00,
2013-06-03 12:28:00,75.0,66.2,29.87,SW,232,4.0,11.0,74,0.00,,---,0.03,227.00,VWS V14.01,2013-06-03 16:28:00,
2013-06-03 12:33:00,74.3,65.5,29.87,South,175,1.0,6.0,74,0.00,,---,0.03,288.00,VWS V14.01,2013-06-03 16:33:00,
2013-06-03 12:38:00,74.0,66.0,29.87,NE,41,2.0,8.0,76,0.00,,---,0.03,227.00,VWS V14.01,2013-06-03 16:38:00,
2013-06-03 12:43:00,74.3,66.6,29.87,SW,226,4.0,7.0,77,0.00,,---,0.03,1079.00,VWS V14.01,2013-06-03 16:43:00,
2013-06-03 12:48:00,74.7,66.6,29.87,SW,222,2.0,11.0,76,0.00,,---,0.03,1213.00,VWS V14.01,2013-06-03 16:48:00,
2013-06-03 12:53:00,74.7,65.9,29.87,WSW,243,4.0,10.0,74,0.00,,---,0.03,406.00,VWS V14.01,2013-06-03 16:53:00,
2013-06-03 12:58:00,74.2,64.6,29.87,WSW,252,0.0,10.0,72,0.00,,---,0.03,272.00,VWS V14.01,2013-06-03 16:58:00,
2013-06-03 13:04:00,73.5,64.3,29.87,SW,226,2.0,8.0,73,0.00,,---,0.03,185.00,VWS V14.01,2013-06-03 17:04:00,
2013-06-03 13:09:00,73.1,65.5,29.87,SW,226,0.0,1.0,77,0.00,,---,0.03,239.00,VWS V14.01,2013-06-03 17:09:00,
2013-06-03 13:14:00,73.5,66.6,29.86,SW,236,1.0,7.0,79,0.00,,---,0.03,1078.00,VWS V14.01,2013-06-03 17:14:00,
2013-06-03 13:19:00,74.4,67.1,29.86,SW,234,2.0,2.0,78,0.00,,---,0.03,1035.00,VWS V14.01,2013-06-03 17:19:00,
2013-06-03 13:24:00,74.9,65.3,29.86,WSW,243,1.0,10.0,72,0.00,,---,0.03,1069.00,VWS V14.01,2013-06-03 17:24:00,
2013-06-03 13:29:00,75.6,65.5,29.85,WSW,238,3.0,4.0,71,0.00,,---,0.03,1065.00,VWS V14.01,2013-06-03 17:29:00,
2013-06-03 13:34:00,76.0,66.3,29.85,WSW,257,3.0,6.0,72,0.00,,---,0.03,1083.00,VWS V14.01,2013-06-03 17:34:00,
2013-06-03 13:39:00,76.6,67.7,29.85,SW,236,3.0,7.0,74,0.00,,---,0.03,1076.00,VWS V14.01,2013-06-03 17:39:00,
2013-06-03 13:44:00,76.7,65.8,29.85,WNW,288,1.0,7.0,69,0.00,,---,0.03,1051.00,VWS V14.01,2013-06-03 17:44:00,
2013-06-03 13:50:00,76.9,66.4,29.84,West,269,3.0,5.0,70,0.00,,---,0.03,1167.00,VWS V14.01,2013-06-03 17:50:00,
2013-06-03 13:55:00,77.3,65.9,29.84,WNW,290,2.0,9.0,68,0.00,,---,0.03,1157.00,VWS V14.01,2013-06-03 17:55:00,
2013-06-03 14:00:00,77.6,66.2,29.85,SW,220,4.0,6.0,68,0.00,,---,0.03,1308.00,VWS V14.01,2013-06-03 18:00:00,
2013-06-03 14:05:00,77.7,65.0,29.84,SW,221,1.0,7.0,65,0.00,,---,0.03,359.00,VWS V14.01,2013-06-03 18:05:00,
2013-06-03 14:10:00,77.3,65.5,29.85,WSW,238,4.0,9.0,67,0.00,,---,0.03,244.00,VWS V14.01,2013-06-03 18:10:00,
2013-06-03 14:15:00,76.2,64.9,29.84,SW,219,0.0,14.0,68,0.00,,---,0.03,1192.00,VWS V14.01,2013-06-03 18:15:00,
2013-06-03 14:20:00,76.4,66.7,29.84,South,169,0.0,3.0,72,0.00,,---,0.03,1134.00,VWS V14.01,2013-06-03 18:20:00,
2013-06-03 14:25:00,76.4,66.3,29.85,NE,54,0.0,7.0,71,0.00,,---,0.03,251.00,VWS V14.01,2013-06-03 18:25:00,
2013-06-03 14:30:00,76.3,66.6,29.84,ENE,61,0.0,9.0,72,0.00,,---,0.03,206.00,VWS V14.01,2013-06-03 18:30:00,
2013-06-03 14:35:00,75.6,65.1,29.84,SW,230,2.0,9.0,70,0.00,,---,0.03,153.00,VWS V14.01,2013-06-03 18:35:00,
2013-06-03 14:40:00,74.8,65.2,29.84,SW,220,2.0,3.0,72,0.00,,---,0.03,158.00,VWS V14.01,2013-06-03 18:40:00,
2013-06-03 14:45:00,73.9,64.3,29.85,SW,234,2.0,7.0,72,0.00,,---,0.03,111.00,VWS V14.01,2013-06-03 18:45:00,
2013-06-03 14:50:00,73.2,63.2,29.84,WSW,244,6.0,6.0,71,0.00,,---,0.03,111.00,VWS V14.01,2013-06-03 18:50:00,
2013-06-03 14:55:00,72.7,63.9,29.84,SW,220,2.0,7.0,74,0.00,,---,0.03,195.00,VWS V14.01,2013-06-03 18:55:00,
2013-06-03 15:00:00,72.5,64.1,29.84,WSW,250,0.0,6.0,75,0.00,,---,0.03,322.00,VWS V14.01,2013-06-03 19:00:00,
2013-06-03 15:06:00,72.8,64.4,29.84,WSW,241,0.0,7.0,75,0.00,,---,0.03,1020.00,VWS V14.01,2013-06-03 19:06:00,
2013-06-03 15:11:00,74.0,66.3,29.83,SW,223,1.0,5.0,77,0.00,,---,0.03,1211.00,VWS V14.01,2013-06-03 19:11:00,
2013-06-03 15:16:00,75.3,66.1,29.83,WSW,238,0.0,6.0,73,0.00,,---,0.03,380.00,VWS V14.01,2013-06-03 19:16:00,
2013-06-03 15:21:00,76.0,65.1,29.83,North,5,0.0,2.0,69,0.00,,---,0.03,976.00,VWS V14.01,2013-06-03 19:21:00,
2013-06-03 15:26:00,76.7,65.8,29.82,SW,226,2.0,4.0,69,0.00,,---,0.03,976.00,VWS V14.01,2013-06-03 19:26:00,
2013-06-03 15:31:00,77.2,66.7,29.82,WSW,244,0.0,7.0,70,0.00,,---,0.03,995.00,VWS V14.01,2013-06-03 19:31:00,
2013-06-03 15:37:00,77.2,64.5,29.82,SW,225,3.0,10.0,65,0.00,,---,0.03,949.00,VWS V14.01,2013-06-03 19:37:00,
2013-06-03 15:42:00,77.1,65.3,29.82,SSE,163,0.0,7.0,67,0.00,,---,0.03,946.00,VWS V14.01,2013-06-03 19:42:00,
2013-06-03 15:47:00,77.1,65.3,29.81,SW,233,2.0,12.0,67,0.00,,---,0.03,953.00,VWS V14.01,2013-06-03 19:47:00,
2013-06-03 15:52:00,77.1,64.4,29.81,SW,230,2.0,6.0,65,0.00,,---,0.03,951.00,VWS V14.01,2013-06-03 19:52:00,
2013-06-03 15:57:00,77.4,63.4,29.81,SW,231,2.0,9.0,62,0.00,,---,0.03,967.00,VWS V14.01,2013-06-03 19:57:00,
2013-06-03 16:02:00,77.9,64.3,29.81,WSW,244,1.0,8.0,63,0.00,,---,0.03,178.00,VWS V14.01,2013-06-03 20:02:00,
2013-06-03 16:07:00,77.5,63.5,29.81,SE,143,1.0,8.0,62,0.00,,---,0.03,1014.00,VWS V14.01,2013-06-03 20:07:00,
2013-06-03 16:12:00,78.0,65.7,29.81,West,263,5.0,5.0,66,0.00,,---,0.03,932.00,VWS V14.01,2013-06-03 20:12:00,
2013-06-03 16:17:00,78.6,64.0,29.81,SW,223,3.0,9.0,61,0.00,,---,0.03,933.00,VWS V14.01,2013-06-03 20:17:00,
2013-06-03 16:22:00,79.1,65.0,29.81,SSW,192,0.0,4.0,62,0.00,,---,0.03,928.00,VWS V14.01,2013-06-03 20:22:00,
2013-06-03 16:27:00,79.6,63.5,29.81,SW,231,8.0,9.0,58,0.00,,---,0.03,967.00,VWS V14.01,2013-06-03 20:27:00,
2013-06-03 16:32:00,79.1,64.5,29.81,WSW,245,3.0,3.0,61,0.00,,---,0.03,916.00,VWS V14.01,2013-06-03 20:32:00,
2013-06-03 16:37:00,79.0,63.5,29.81,SW,223,11.0,11.0,59,0.00,,---,0.03,183.00,VWS V14.01,2013-06-03 20:37:00,
2013-06-03 16:43:00,77.6,62.2,29.81,WSW,257,0.0,9.0,59,0.00,,---,0.03,178.00,VWS V14.01,2013-06-03 20:43:00,
2013-06-03 16:48:00,77.5,64.8,29.81,West,267,0.0,9.0,65,0.00,,---,0.03,884.00,VWS V14.01,2013-06-03 20:48:00,
2013-06-03 16:53:00,77.8,63.8,29.81,SW,223,1.0,4.0,62,0.00,,---,0.03,613.00,VWS V14.01,2013-06-03 20:53:00,
2013-06-03 16:58:00,77.9,63.4,29.81,SSW,204,9.0,10.0,61,0.00,,---,0.03,786.00,VWS V14.01,2013-06-03 20:58:00,
2013-06-03 17:03:00,78.2,64.1,29.81,SSW,207,1.0,3.0,62,0.00,,---,0.03,777.00,VWS V14.01,2013-06-03 21:03:00,
2013-06-03 17:08:00,78.7,62.7,29.81,WNW,299,0.0,4.0,58,0.00,,---,0.03,779.00,VWS V14.01,2013-06-03 21:08:00,
2013-06-03 17:13:00,79.1,62.1,29.81,NE,43,0.0,4.0,56,0.00,,---,0.03,749.00,VWS V14.01,2013-06-03 21:13:00,
2013-06-03 17:18:00,79.2,62.7,29.81,SSE,164,1.0,6.0,57,0.00,,---,0.03,738.00,VWS V14.01,2013-06-03 21:18:00,
2013-06-03 17:23:00,79.1,63.1,29.81,WSW,247,1.0,4.0,58,0.00,,---,0.03,394.00,VWS V14.01,2013-06-03 21:23:00,
2013-06-03 17:28:00,78.9,61.4,29.81,ESE,118,1.0,4.0,55,0.00,,---,0.03,223.00,VWS V14.01,2013-06-03 21:28:00,
2013-06-03 17:34:00,78.4,61.9,29.81,ENE,63,0.0,4.0,57,0.00,,---,0.03,179.00,VWS V14.01,2013-06-03 21:34:00,
2013-06-03 17:39:00,78.5,63.0,29.81,SW,225,2.0,4.0,59,0.00,,---,0.03,712.00,VWS V14.01,2013-06-03 21:39:00,
2013-06-03 17:44:00,78.8,63.3,29.81,SSW,208,1.0,4.0,59,0.00,,---,0.03,710.00,VWS V14.01,2013-06-03 21:44:00,
2013-06-03 17:49:00,78.6,63.1,29.81,WSW,245,0.0,2.0,59,0.00,,---,0.03,517.00,VWS V14.01,2013-06-03 21:49:00,
2013-06-03 17:54:00,78.1,61.6,29.81,SE,128,0.0,3.0,57,0.00,,---,0.03,125.00,VWS V14.01,2013-06-03 21:54:00,
2013-06-03 17:59:00,77.2,62.2,29.81,WSW,244,0.0,0.0,60,0.00,,---,0.03,142.00,VWS V14.01,2013-06-03 21:59:00,
2013-06-03 18:04:00,76.6,63.1,29.81,NNW,344,0.0,3.0,63,0.00,,---,0.03,214.00,VWS V14.01,2013-06-03 22:04:00,
2013-06-03 18:09:00,76.4,63.3,29.81,North,5,0.0,1.0,64,0.00,,---,0.03,617.00,VWS V14.01,2013-06-03 22:09:00,
2013-06-03 18:14:00,76.5,63.0,29.81,North,5,0.0,1.0,63,0.00,,---,0.03,220.00,VWS V14.01,2013-06-03 22:14:00,
2013-06-03 18:20:00,76.5,63.0,29.80,ENE,74,0.0,1.0,63,0.00,,---,0.03,346.00,VWS V14.01,2013-06-03 22:20:00,
2013-06-03 18:25:00,76.9,64.7,29.81,ENE,74,0.0,1.0,66,0.00,,---,0.03,536.00,VWS V14.01,2013-06-03 22:25:00,
2013-06-03 18:30:00,77.3,63.3,29.81,ESE,113,2.0,3.0,62,0.00,,---,0.03,490.00,VWS V14.01,2013-06-03 22:30:00,
2013-06-03 18:35:00,77.5,63.0,29.81,NE,41,0.0,4.0,61,0.00,,---,0.03,415.00,VWS V14.01,2013-06-03 22:35:00,
2013-06-03 18:40:00,77.4,63.4,29.81,NE,51,0.0,3.0,62,0.00,,---,0.03,404.00,VWS V14.01,2013-06-03 22:40:00,
2013-06-03 18:45:00,77.5,63.9,29.81,NE,37,3.0,6.0,63,0.00,,---,0.03,388.00,VWS V14.01,2013-06-03 22:45:00,
2013-06-03 18:47:00,77.4,62.4,29.81,ESE,109,0.0,2.0,60,0.00,,---,0.03,338.00,VWS V14.01,2013-06-03 22:47:00,
2013-06-03 18:50:00,77.3,62.3,29.81,North,360,0.0,2.0,60,0.00,,---,0.03,367.00,VWS V14.01,2013-06-03 22:50:00,
2013-06-03 18:55:00,77.4,63.4,29.81,North,351,0.0,2.0,62,0.00,,---,0.03,341.00,VWS V14.01,2013-06-03 22:55:00,
2013-06-03 19:00:00,77.3,62.8,29.81,SSW,211,2.0,2.0,61,0.00,,---,0.03,323.00,VWS V14.01,2013-06-03 23:00:00,
2013-06-03 19:05:00,77.5,63.5,29.81,SSW,211,0.0,2.0,62,0.00,,---,0.03,304.00,VWS V14.01,2013-06-03 23:05:00,
2013-06-03 19:10:00,77.6,64.5,29.81,SSW,211,0.0,1.0,64,0.00,,---,0.03,279.00,VWS V14.01,2013-06-03 23:10:00,
2013-06-03 19:15:00,77.7,64.6,29.81,SSW,211,0.0,1.0,64,0.00,,---,0.03,265.00,VWS V14.01,2013-06-03 23:15:00,
2013-06-03 19:21:00,77.5,64.4,29.81,NNE,18,0.0,1.0,64,0.00,,---,0.03,248.00,VWS V14.01,2013-06-03 23:21:00,
2013-06-03 19:26:00,77.3,62.8,29.82,NE,46,1.0,4.0,61,0.00,,---,0.03,216.00,VWS V14.01,2013-06-03 23:26:00,
2013-06-03 19:32:00,77.1,63.1,29.82,SSE,150,0.0,1.0,62,0.00,,---,0.03,193.00,VWS V14.01,2013-06-03 23:32:00,
2013-06-03 19:37:00,77.2,63.2,29.82,SSE,150,0.0,1.0,62,0.00,,---,0.03,172.00,VWS V14.01,2013-06-03 23:37:00,
2013-06-03 19:42:00,77.3,63.3,29.82,SSE,150,0.0,1.0,62,0.00,,---,0.03,158.00,VWS V14.01,2013-06-03 23:42:00,
2013-06-03 19:47:00,77.2,63.6,29.83,SSE,150,0.0,1.0,63,0.00,,---,0.03,135.00,VWS V14.01,2013-06-03 23:47:00,
2013-06-03 19:52:00,76.8,64.2,29.83,SSE,150,0.0,0.0,65,0.00,,---,0.03,44.00,VWS V14.01,2013-06-03 23:52:00,
2013-06-03 19:57:00,76.4,62.4,29.83,SSE,150,0.0,0.0,62,0.00,,---,0.03,42.00,VWS V14.01,2013-06-03 23:57:00,
2013-06-03 20:02:00,76.0,63.8,29.83,SSE,150,0.0,0.0,66,0.00,,---,0.03,33.00,VWS V14.01,2013-06-04 00:02:00,
2013-06-03 20:07:00,75.7,63.5,29.83,SSE,150,0.0,0.0,66,0.00,,---,0.03,37.00,VWS V14.01,2013-06-04 00:07:00,
2013-06-03 20:12:00,75.1,62.5,29.83,SSE,150,0.0,0.0,65,0.00,,---,0.03,32.00,VWS V14.01,2013-06-04 00:12:00,
2013-06-03 20:17:00,74.6,64.2,29.83,SSE,150,0.0,0.0,70,0.00,,---,0.03,28.00,VWS V14.01,2013-06-04 00:17:00,
2013-06-03 20:22:00,74.0,62.4,29.84,SSE,150,0.0,0.0,67,0.00,,---,0.03,23.00,VWS V14.01,2013-06-04 00:22:00,
2013-06-03 20:27:00,73.4,63.4,29.84,SSE,150,0.0,0.0,71,0.00,,---,0.03,19.00,VWS V14.01,2013-06-04 00:27:00,
2013-06-03 20:32:00,72.5,63.0,29.84,SSE,150,0.0,0.0,72,0.00,,---,0.03,14.00,VWS V14.01,2013-06-04 00:32:00,
2013-06-03 20:37:00,71.6,62.1,29.84,SSE,150,0.0,0.0,72,0.00,,---,0.03,9.00,VWS V14.01,2013-06-04 00:37:00,
2013-06-03 20:42:00,70.8,62.5,29.85,SSE,150,0.0,0.0,75,0.00,,---,0.03,5.00,VWS V14.01,2013-06-04 00:42:00,
2013-06-03 20:47:00,70.3,62.4,29.85,SSE,150,0.0,0.0,76,0.00,,---,0.03,0.00,VWS V14.01,2013-06-04 00:47:00,
2013-06-03 20:52:00,69.7,60.7,29.85,SSE,150,0.0,0.0,73,0.00,,---,0.03,0.00,VWS V14.01,2013-06-04 00:52:00,
2013-06-03 20:57:00,69.5,61.6,29.85,SSE,150,0.0,0.0,76,0.00,,---,0.03,0.00,VWS V14.01,2013-06-04 00:57:00,
2013-06-03 21:02:00,69.2,61.3,29.85,SSE,150,0.0,0.0,76,0.00,,---,0.03,0.00,VWS V14.01,2013-06-04 01:02:00,
2013-06-03 21:07:00,68.9,61.4,29.85,SSE,150,0.0,0.0,77,0.00,,---,0.03,0.00,VWS V14.01,2013-06-04 01:07:00,
2013-06-03 21:13:00,68.7,61.6,29.85,SSE,150,0.0,0.0,78,0.00,,---,0.03,0.00,VWS V14.01,2013-06-04 01:13:00,
2013-06-03 21:18:00,68.3,60.8,29.85,SSE,150,0.0,0.0,77,0.00,,---,0.03,0.00,VWS V14.01,2013-06-04 01:18:00,
2013-06-03 21:23:00,68.0,60.9,29.85,SSE,150,0.0,0.0,78,0.00,,---,0.03,0.00,VWS V14.01,2013-06-04 01:23:00,
2013-06-03 21:28:00,67.8,61.1,29.86,SSE,150,0.0,0.0,79,0.00,,---,0.03,0.00,VWS V14.01,2013-06-04 01:28:00,
2013-06-03 21:33:00,67.5,61.1,29.86,SSE,150,0.0,0.0,80,0.00,,---,0.03,0.00,VWS V14.01,2013-06-04 01:33:00,
2013-06-03 21:38:00,67.2,61.2,29.86,SSE,150,0.0,0.0,81,0.00,,---,0.03,0.00,VWS V14.01,2013-06-04 01:38:00,
2013-06-03 21:43:00,66.9,60.9,29.87,SSE,150,0.0,0.0,81,0.00,,---,0.03,0.00,VWS V14.01,2013-06-04 01:43:00,
2013-06-03 21:48:00,66.7,60.7,29.87,SSE,150,0.0,0.0,81,0.00,,---,0.03,0.00,VWS V14.01,2013-06-04 01:48:00,
2013-06-03 21:53:00,66.6,60.2,29.88,SSE,150,0.0,1.0,80,0.00,,---,0.03,0.00,VWS V14.01,2013-06-04 01:53:00,
2013-06-03 21:58:00,66.6,60.2,29.88,SSE,150,0.0,1.0,80,0.00,,---,0.03,0.00,VWS V14.01,2013-06-04 01:58:00,
2013-06-03 22:03:00,66.6,60.2,29.88,SSE,150,0.0,0.0,80,0.00,,---,0.03,0.00,VWS V14.01,2013-06-04 02:03:00,
2013-06-03 22:08:00,66.6,60.2,29.88,SSE,150,0.0,0.0,80,0.00,,---,0.03,0.00,VWS V14.01,2013-06-04 02:08:00,
2013-06-03 22:13:00,66.7,60.7,29.89,SSE,150,0.0,0.0,81,0.00,,---,0.03,0.00,VWS V14.01,2013-06-04 02:13:00,
2013-06-03 22:18:00,66.7,60.3,29.89,SSE,150,0.0,0.0,80,0.00,,---,0.03,0.00,VWS V14.01,2013-06-04 02:18:00,
2013-06-03 22:23:00,66.7,60.0,29.89,SSE,150,0.0,0.0,79,0.00,,---,0.03,0.00,VWS V14.01,2013-06-04 02:23:00,
2013-06-03 22:28:00,66.7,60.3,29.90,SSE,150,0.0,0.0,80,0.00,,---,0.03,0.00,VWS V14.01,2013-06-04 02:28:00,
2013-06-03 22:34:00,66.7,60.0,29.90,SSE,150,0.0,0.0,79,0.00,,---,0.03,0.00,VWS V14.01,2013-06-04 02:34:00,
2013-06-03 22:39:00,66.7,60.3,29.90,SSE,150,0.0,0.0,80,0.00,,---,0.03,0.00,VWS V14.01,2013-06-04 02:39:00,
2013-06-03 22:44:00,66.6,59.9,29.90,SSE,150,0.0,0.0,79,0.00,,---,0.03,0.00,VWS V14.01,2013-06-04 02:44:00,
2013-06-03 22:49:00,66.6,59.9,29.91,SSE,150,0.0,0.0,79,0.00,,---,0.03,0.00,VWS V14.01,2013-06-04 02:49:00,
2013-06-03 22:54:00,66.5,59.8,29.91,SSE,150,0.0,1.0,79,0.00,,---,0.03,0.00,VWS V14.01,2013-06-04 02:54:00,
2013-06-03 22:59:00,66.5,60.2,29.91,SSE,150,0.0,0.0,80,0.00,,---,0.03,0.00,VWS V14.01,2013-06-04 02:59:00,
2013-06-03 23:04:00,66.4,60.0,29.91,SSE,150,0.0,0.0,80,0.00,,---,0.03,0.00,VWS V14.01,2013-06-04 03:04:00,
2013-06-03 23:09:00,66.2,60.2,29.91,SSE,150,0.0,0.0,81,0.00,,---,0.03,0.00,VWS V14.01,2013-06-04 03:09:00,
2013-06-03 23:14:00,65.9,59.9,29.91,SSE,150,0.0,0.0,81,0.00,,---,0.03,0.00,VWS V14.01,2013-06-04 03:14:00,
2013-06-03 23:19:00,65.8,59.8,29.91,SSE,150,0.0,0.0,81,0.00,,---,0.03,0.00,VWS V14.01,2013-06-04 03:19:00,
2013-06-03 23:24:00,65.6,60.0,29.91,SSE,150,0.0,0.0,82,0.00,,---,0.03,0.00,VWS V14.01,2013-06-04 03:24:00,
2013-06-03 23:30:00,65.5,59.9,29.91,SSE,150,0.0,0.0,82,0.00,,---,0.03,0.00,VWS V14.01,2013-06-04 03:30:00,
2013-06-03 23:35:00,65.3,59.7,29.91,SSE,150,0.0,0.0,82,0.00,,---,0.03,0.00,VWS V14.01,2013-06-04 03:35:00,
2013-06-03 23:39:00,65.1,60.2,29.92,SSE,150,0.0,0.0,84,0.00,,---,0.03,0.00,VWS V14.01,2013-06-04 03:39:00,
2013-06-03 23:44:00,64.9,60.0,29.92,SSE,150,0.0,0.0,84,0.00,,---,0.03,0.00,VWS V14.01,2013-06-04 03:44:00,
2013-06-03 23:49:00,64.7,59.8,29.92,SSE,150,0.0,0.0,84,0.00,,---,0.03,0.00,VWS V14.01,2013-06-04 03:49:00,
2013-06-03 23:55:00,64.6,59.7,29.92,SSE,150,0.0,0.0,84,0.00,,---,0.03,0.00,VWS V14.01,2013-06-04 03:55:00,